Olean, NY

7:10 PM EDT on April 22, 2018 (GMT -0400)
Cattaraugus County-Olean

Weather History for KOLE - October, 2014

Change the Weather History Date:

Thursday, October 23, 2014

  Actual Average (KBFD) Record (KBFD)
Temperature  
Mean Temperature 45 °F -  
Max Temperature 53 °F 55 °F 75 °F (1975)
Min Temperature 37 °F 35 °F 19 °F (1969)
Degree Days  
Heating Degree Days 20    
Moisture  
Dew Point 41 °F    
Average Humidity 90    
Maximum Humidity 100    
Minimum Humidity 58    
Precipitation  
Precipitation 0.00 in - - ()
Sea Level Pressure  
Sea Level Pressure 30.05 in    
Wind  
Wind Speed 10 mph (NNW)    
Max Wind Speed 17 mph    
Max Gust Speed 26 mph    
Visibility 10 miles    
Events      
Averages and records for this station are not official NWS values.
T = Trace of Precipitation, MM = Missing Value Source: NWS Daily Summary

Daily Weather History Graph

Daily Weather History Graph

Search for Another Location

Airport or City:

Astronomy

Oct. 23, 2014 Rise Set
Actual Time 7:35 AM EDT 6:19 PM EDT
Civil Twilight 7:06 AM EDT 6:47 PM EDT
Nautical Twilight 6:34 AM EDT 7:20 PM EDT
Astronomical Twilight 6:01 AM EDT 7:53 PM EDT
Moon 7:12 AM EDT (10/23) 6:19 PM EDT (10/23)
Length of Visible Light 11h 40m
Length of Day
10h 43m
Waning Crescent, 0% of the Moon is Illuminated
Oct 23
Waning Crescent
Oct 23
New
Oct 30
First Quarter
Nov 6
Full
Nov 14
Last Quarter

Hourly Weather History & Observations

Time (EDT) Temp. Windchill Dew Point Humidity Pressure Visibility Wind Dir Wind Speed Gust Speed Precip Events Conditions
12:15 AM 41.0 °F 34.3 °F 41.0 °F 100% 30.11 in 10.0 mi North 11.5 mph 17.3 mph N/A   Overcast
12:35 AM 41.0 °F 35.8 °F 41.0 °F 100% 30.11 in 10.0 mi North 8.1 mph - N/A   Overcast
12:55 AM 41.0 °F 35.8 °F 41.0 °F 100% 30.11 in 10.0 mi North 8.1 mph - N/A   Overcast
1:15 AM 41.0 °F 35.2 °F 41.0 °F 100% 30.10 in 10.0 mi NNW 9.2 mph - N/A   Overcast
1:35 AM 41.0 °F 35.2 °F 41.0 °F 100% 30.09 in 10.0 mi NNW 9.2 mph - N/A   Overcast
1:55 AM 39.2 °F 33.6 °F 39.2 °F 100% 30.08 in 10.0 mi NNW 8.1 mph - N/A   Mostly Cloudy
2:15 AM 39.2 °F 34.2 °F 39.2 °F 100% 30.08 in 10.0 mi NNW 6.9 mph - N/A   Overcast
2:35 AM 39.2 °F 31.6 °F 39.2 °F 100% 30.08 in 10.0 mi North 12.7 mph 18.4 mph N/A   Overcast
2:55 AM 39.2 °F 32.5 °F 39.2 °F 100% 30.08 in 10.0 mi North 10.4 mph 17.3 mph N/A   Overcast
3:15 AM 39.2 °F 34.2 °F 39.2 °F 100% 30.08 in 10.0 mi North 6.9 mph - N/A   Overcast
3:35 AM 37.4 °F 30.3 °F 37.4 °F 100% 30.07 in 10.0 mi North 10.4 mph 16.1 mph N/A   Overcast
3:55 AM 39.2 °F 34.2 °F 39.2 °F 100% 30.08 in 10.0 mi North 6.9 mph - N/A   Overcast
4:15 AM 37.4 °F 30.3 °F 37.4 °F 100% 30.08 in 10.0 mi North 10.4 mph - N/A   Overcast
4:35 AM 37.4 °F 30.3 °F 37.4 °F 100% 30.07 in 10.0 mi NNW 10.4 mph 17.3 mph N/A   Overcast
4:55 AM 37.4 °F 29.8 °F 37.4 °F 100% 30.07 in 10.0 mi North 11.5 mph 18.4 mph N/A   Overcast
5:15 AM 37.4 °F 31.4 °F 37.4 °F 100% 30.06 in 10.0 mi NNW 8.1 mph 17.3 mph N/A   Overcast
5:35 AM 37.4 °F 30.3 °F 37.4 °F 100% 30.07 in 10.0 mi NNW 10.4 mph 17.3 mph N/A   Overcast
5:55 AM 37.4 °F 30.3 °F 37.4 °F 100% 30.08 in 10.0 mi North 10.4 mph 20.7 mph N/A   Overcast
6:15 AM 37.4 °F 32.1 °F 37.4 °F 100% 30.08 in 10.0 mi NNW 6.9 mph 19.6 mph N/A   Overcast
6:35 AM 37.4 °F 31.4 °F 37.4 °F 100% 30.08 in 10.0 mi North 8.1 mph 16.1 mph N/A   Overcast
6:55 AM 37.4 °F 29.3 °F 37.4 °F 100% 30.07 in 10.0 mi NNW 12.7 mph 18.4 mph N/A   Overcast
7:15 AM 37.4 °F 30.3 °F 37.4 °F 100% 30.07 in 10.0 mi NNW 10.4 mph 16.1 mph N/A   Overcast
7:35 AM 37.4 °F 30.3 °F 37.4 °F 100% 30.08 in 10.0 mi NNW 10.4 mph 17.3 mph N/A   Overcast
7:55 AM 37.4 °F 31.4 °F 37.4 °F 100% 30.07 in 10.0 mi NNW 8.1 mph 16.1 mph N/A   Overcast
8:15 AM 37.4 °F 31.4 °F 37.4 °F 100% 30.08 in 10.0 mi NNW 8.1 mph - N/A   Overcast
8:35 AM 37.4 °F 29.8 °F 37.4 °F 100% 30.07 in 10.0 mi NNW 11.5 mph 17.3 mph N/A   Overcast
8:55 AM 37.4 °F 30.3 °F 37.4 °F 100% 30.07 in 10.0 mi NNW 10.4 mph 17.3 mph N/A   Overcast
9:15 AM 37.4 °F 30.3 °F 37.4 °F 100% 30.07 in 10.0 mi North 10.4 mph 17.3 mph N/A   Overcast
9:35 AM 39.2 °F 34.2 °F 39.2 °F 100% 30.06 in 10.0 mi NNW 6.9 mph 18.4 mph N/A   Overcast
9:55 AM 41.0 °F 34.3 °F 41.0 °F 100% 30.07 in 10.0 mi NNW 11.5 mph 19.6 mph N/A   Overcast
10:15 AM 41.0 °F 35.2 °F 41.0 °F 100% 30.07 in 10.0 mi North 9.2 mph 18.4 mph N/A   Scattered Clouds
10:35 AM 42.8 °F 37.0 °F 42.8 °F 100% 30.06 in 10.0 mi NNW 10.4 mph 17.3 mph N/A   Clear
10:55 AM 44.6 °F 39.7 °F 42.8 °F 93% 30.07 in 10.0 mi North 9.2 mph - N/A   Clear
11:15 AM 44.6 °F 38.4 °F 42.8 °F 93% 30.06 in 10.0 mi North 12.7 mph 19.6 mph N/A   Clear
11:35 AM 46.4 °F 41.5 °F 42.8 °F 87% 30.06 in 10.0 mi North 10.4 mph 18.4 mph N/A   Clear
11:55 AM 46.4 °F 40.7 °F 41.0 °F 81% 30.06 in 10.0 mi North 12.7 mph 23.0 mph N/A   Clear
12:15 PM 48.2 °F - 41.0 °F 76% 30.05 in 10.0 mi NW 10.4 mph 19.6 mph N/A   Clear
12:35 PM 50.0 °F - 41.0 °F 71% 30.04 in 10.0 mi North 12.7 mph 21.9 mph N/A   Clear
12:55 PM 50.0 °F - 41.0 °F 71% 30.04 in 10.0 mi NNW 10.4 mph 25.3 mph N/A   Clear
1:15 PM 50.0 °F - 41.0 °F 71% 30.04 in 10.0 mi NNW 12.7 mph 25.3 mph N/A   Clear
1:35 PM 51.8 °F - 41.0 °F 67% 30.03 in 10.0 mi NNW 17.3 mph 23.0 mph N/A   Clear
1:55 PM 51.8 °F - 41.0 °F 67% 30.02 in 10.0 mi NNW 12.7 mph 20.7 mph N/A   Clear
2:15 PM 51.8 °F - 41.0 °F 67% 30.02 in 10.0 mi NNW 11.5 mph 20.7 mph N/A   Clear
2:35 PM 51.8 °F - 41.0 °F 67% 30.01 in 10.0 mi North 16.1 mph 26.5 mph N/A   Clear
2:55 PM 53.6 °F - 41.0 °F 62% 30.01 in 10.0 mi NNW 10.4 mph 23.0 mph N/A   Clear
3:15 PM 53.6 °F - 41.0 °F 62% 30.01 in 10.0 mi NNW 13.8 mph 20.7 mph N/A   Mostly Cloudy
3:35 PM 53.6 °F - 39.2 °F 58% 30.01 in 10.0 mi NNW 6.9 mph 21.9 mph N/A   Scattered Clouds
3:55 PM 53.6 °F - 41.0 °F 62% 30.01 in 10.0 mi NNW 13.8 mph 21.9 mph N/A   Clear
4:15 PM 53.6 °F - 41.0 °F 62% 30.01 in 10.0 mi NNW 9.2 mph 18.4 mph N/A   Scattered Clouds
4:35 PM 51.8 °F - 41.0 °F 67% 30.00 in 10.0 mi NW 10.4 mph 19.6 mph N/A   Clear
4:55 PM 51.8 °F - 41.0 °F 67% 30.01 in 10.0 mi NNW 9.2 mph 20.7 mph N/A   Clear
5:15 PM 51.8 °F - 41.0 °F 67% 30.01 in 10.0 mi NNW 10.4 mph 21.9 mph N/A   Clear
5:35 PM 50.0 °F - 39.2 °F 66% 30.00 in 10.0 mi NW 9.2 mph 17.3 mph N/A   Clear
5:55 PM 50.0 °F - 39.2 °F 66% 30.00 in 10.0 mi NW 10.4 mph 23.0 mph N/A   Clear
6:15 PM 48.2 °F - 41.0 °F 76% 30.01 in 10.0 mi NW 9.2 mph 17.3 mph N/A   Clear
6:35 PM 46.4 °F 43.5 °F 41.0 °F 81% 30.01 in 10.0 mi NW 5.8 mph - N/A   Clear
6:55 PM 46.4 °F 44.3 °F 42.8 °F 87% 30.01 in 10.0 mi NW 4.6 mph - N/A   Clear
7:15 PM 46.4 °F 42.9 °F 42.8 °F 87% 30.01 in 10.0 mi NW 6.9 mph - N/A   Scattered Clouds
7:35 PM 46.4 °F 43.5 °F 42.8 °F 87% 30.01 in 10.0 mi WNW 5.8 mph - N/A   Scattered Clouds
7:55 PM 44.6 °F 40.7 °F 44.6 °F 100% 30.02 in 10.0 mi NW 6.9 mph - N/A   Scattered Clouds
8:15 PM 44.6 °F 40.2 °F 44.6 °F 100% 30.01 in 10.0 mi NW 8.1 mph - N/A   Overcast
8:35 PM 44.6 °F 39.7 °F 44.6 °F 100% 30.01 in 10.0 mi NW 9.2 mph - N/A   Overcast
8:55 PM 44.6 °F 39.7 °F 44.6 °F 100% 30.01 in 10.0 mi NW 9.2 mph - N/A   Overcast
9:15 PM 44.6 °F 40.2 °F 44.6 °F 100% 30.01 in 10.0 mi NW 8.1 mph 19.6 mph N/A   Overcast
9:35 PM 44.6 °F 39.7 °F 44.6 °F 100% 30.02 in 10.0 mi NW 9.2 mph - N/A   Overcast
9:55 PM 44.6 °F 40.2 °F 44.6 °F 100% 30.02 in 10.0 mi NW 8.1 mph - N/A   Overcast
10:15 PM 44.6 °F 41.4 °F 44.6 °F 100% 30.01 in 10.0 mi NW 5.8 mph - N/A   Overcast
10:35 PM 44.6 °F 42.2 °F 44.6 °F 100% 30.02 in 10.0 mi NW 4.6 mph - N/A   Overcast
10:55 PM 44.6 °F 42.2 °F 44.6 °F 100% 30.02 in 10.0 mi NNW 4.6 mph - N/A   Overcast
11:15 PM 44.6 °F 41.4 °F 44.6 °F 100% 30.01 in 10.0 mi NNW 5.8 mph - N/A   Overcast
11:35 PM 44.6 °F 40.2 °F 44.6 °F 100% 30.01 in 7.0 mi NNW 8.1 mph - N/A   Overcast
11:55 PM 44.6 °F 40.7 °F 44.6 °F 100% 30.01 in 10.0 mi NW 6.9 mph - N/A   Overcast